Location: *
(48.6560°S, 168.9247°W)
Time: 17:59:35
(UTC+00:00)

Daily predictions for brighter satellites

Satellite Brightness Start Highest point End
(mag) Time Altitude Azimuth Time Altitude Azimuth Time Altitude Azimuth
ATLAS 3B R/B 4.2 12:01:01 10° WSW 12:04:02 14° WNW 12:05:15 13° WNW
Cosmos 2112 Rocket 4.4 12:07:23 10° SSW 12:12:46 64° ESE 12:17:43 12° NE
Timation 1 Rocket 4.3 12:09:46 27° NNW 12:13:10 83° ENE 12:19:13 10° SSE
Cosmos 1975 Rocket 3.8 12:10:23 10° SSW 12:14:32 39° W 12:16:04 29° NW
SAR-Lupe-4 3.8 12:15:03 40° NNW 12:15:59 54° W 12:19:35 10° SSW
Cosmos 332 Rocket 3.8 12:13:51 31° NNW 12:16:13 87° WSW 12:21:07 10° SSE
ALOS 2 3.1 12:11:59 10° S 12:16:21 52° WSW 12:18:28 28° NW
BREEZE-M DEB (TANK) 4.4 12:12:15 10° W 12:16:31 88° S 12:33:24 10° ENE
Cosmos 2237 Rocket 4.4 12:13:09 10° SSW 12:17:54 25° SE 12:22:36 10° E
Cosmos 1825 3.0 12:16:30 10° SSW 12:19:45 32° W 12:20:28 29° WNW
Cosmos 2084 3.6 12:18:22 29° NW 12:20:42 89° NE 12:25:32 10° SE
CZ-2D R/B 2.3 12:22:49 25° N 12:26:02 65° WNW 12:31:35 10° SSW
Meteor 1-11 4.3 12:22:22 10° SSW 12:28:10 68° W 12:31:39 24° N
Cosmos 1242 Rocket 3.2 12:25:04 10° S 12:28:16 45° ESE 12:30:09 21° NE
Cosmos 2333 4.3 12:26:12 10° SW 12:31:47 60° WNW 12:35:29 21° N
Cosmos 2322 3.9 12:28:05 10° SSW 12:33:54 76° ESE 12:39:40 10° NNE
Cosmos 1536 Rocket 3.6 12:29:28 10° S 12:34:02 85° W 12:36:39 25° N
Okean 1 Rocket 3.7 12:31:24 21° NNE 12:34:06 50° E 12:38:28 10° SSE
MSX 3.9 12:30:51 24° N 12:34:26 63° WNW 12:40:13 10° SSW
Sich 1 Rocket 3.6 12:33:44 28° N 12:36:11 87° W 12:40:53 10° S
Helios 1A Rocket 2.8 12:33:17 10° SSE 12:37:16 85° WSW 12:39:07 31° NNW
Cosmos 2016 Rocket 4.3 12:32:10 10° S 12:38:38 70° E 12:44:34 12° NNE
IDEFIX/ARIANE 42P 2.9 12:35:57 25° NNW 12:38:45 49° W 12:43:57 10° SSW
SL-27 R/B 2.0 12:38:32 43° NNW 12:39:27 87° WSW 12:42:37 10° SSE
CZ-2C R/B 4.0 12:34:47 10° NE 12:40:26 56° ESE 12:46:13 10° S
Okean 2 Rocket 3.1 12:39:07 28° NNW 12:41:28 82° W 12:45:58 10° S
ADEOS II 2.1 12:39:03 21° N 12:42:36 71° WNW 12:47:56 10° SSW
Meteor 1-4 Rocket 3.8 12:42:27 10° SW 12:45:03 22° W 12:45:27 21° WNW
USA 305 4.4 12:44:50 10° SW 12:46:13 15° S 12:47:31 10° SE
Cosmos 2360 Rocket 3.1 12:44:04 10° SW 12:49:03 32° WNW 12:51:36 22° NNW
Cosmos 2219 Rocket 2.3 12:43:34 10° SW 12:49:08 60° WNW 12:53:31 16° N
COSMOS 2441 4.4 12:46:08 22° N 12:49:15 66° WNW 12:54:08 10° SSW
USA 307 4.1 12:48:50 10° SW 12:50:43 21° S 12:52:30 10° ESE
Cosmos 921 Rocket 3.0 12:47:33 10° SSW 12:51:45 63° WNW 12:54:19 22° N
Cosmos 2123 Rocket 4.0 12:49:44 19° N 12:54:24 82° E 13:00:41 10° S
Cosmos 2233 Rocket 4.5 12:48:23 10° S 12:54:45 61° ESE 13:00:58 10° NNE
Cosmos 1727 Rocket 4.5 12:51:05 20° NW 12:55:14 49° WSW 13:01:24 10° S
Cosmos 1346 Rocket 3.2 12:53:28 21° NNE 12:55:53 55° E 12:59:47 10° SSE
Cosmos 2173 Rocket 4.1 12:50:10 10° SSW 12:56:13 59° W 13:00:35 19° NNW
SL-8 R/B 3.7 12:51:29 10° W 12:56:23 89° N 13:01:16 10° E
ALOS 2.4 12:57:48 11° NNE 13:02:22 75° ESE 13:07:06 10° S
Cosmos 372 Rocket 4.2 12:59:42 21° NW 13:03:05 60° WSW 13:08:12 10° SSE
AQUA 4.1 13:00:17 21° NNW 13:03:17 52° W 13:08:00 10° SSW
Cosmos 1455 4.1 13:02:52 13° WNW 13:04:37 18° WSW 13:07:11 10° SSW
Cosmos 1441 Rocket 3.6 13:04:48 24° NW 13:06:50 49° WSW 13:10:35 10° S
USA 306 3.7 13:06:30 10° WSW 13:09:51 44° SSE 13:13:27 10° E
Meteor 2-13 Rocket 4.5 13:07:10 18° NNW 13:11:45 75° W 13:17:56 10° S
ATLAS 5 CENTAUR R/B 1.9 13:06:10 10° SW 13:12:11 80° NW 13:16:55 10° NE
Cosmos 2322 Rocket 3.9 13:09:08 10° WSW 13:12:20 16° W 13:14:09 14° WNW
Cosmos 1455 Rocket 3.7 13:09:12 13° NNE 13:12:52 51° E 13:17:09 10° SSE
Cosmos 1937 Rocket 4.0 13:10:03 18° NW 13:13:42 51° WSW 13:18:49 10° SSE
USA 276 4.3 13:13:17 12° NNE 13:13:56 13° NE 13:15:24 10° ENE
Cosmos 292 Rocket 3.8 13:11:41 20° NNW 13:15:03 82° WSW 13:19:58 10° SSE
ISS -3.3 13:14:00 10° WSW 13:17:25 66° SSE 13:20:50 10° E
USA 308 1.5 13:17:39 10° WSW 13:20:03 61° NNW 13:22:54 10° NE
Resurs 1-4 Rocket 3.5 13:17:55 16° NW 13:20:32 23° W 13:24:42 10° SW
BREEZE M DEB (TANK) 1.9 13:21:19 10° WSW 13:23:29 82° N 13:27:11 10° ENE
FENGYUN 3A 4.0 13:20:28 15° N 13:24:44 49° W 13:30:02 10° SSW
CZ-4 R/B 3.8 13:20:35 13° N 13:24:45 64° WNW 13:29:29 10° SSW
IRIDIUM 106 4.3 13:21:24 10° S 13:26:44 81° W 13:31:49 11° N
USA 215 3.6 13:21:52 10° NNE 13:28:05 43° NW 13:34:22 10° WSW
COBE Rocket 4.2 13:23:49 10° NNE 13:28:28 66° ESE 13:33:16 10° S
Thor Agena Rocket 3.6 13:26:07 10° N 13:31:17 73° WNW 13:36:37 10° SSW
CZ-2C R/B 2.8 13:29:47 10° NNE 13:34:50 69° ESE 13:39:48 10° S
Cosmos 2297 Rocket 2.9 13:30:36 11° N 13:35:52 49° ENE 13:41:22 10° SE
Cosmos 1725 Rocket 4.4 13:30:18 10° SSW 13:36:27 50° W 13:42:07 12° NNW
Cosmos 1980 3.9 13:32:33 10° SSW 13:38:18 80° ESE 13:43:59 10° NNE
NOSS 0 Rocket 4.0 13:39:55 10° SW 13:46:05 64° WNW 13:52:14 10° NNE
COSMOS 2428 3.2 13:43:06 10° SW 13:48:25 40° WNW 13:53:40 10° N
Cosmos 2333 Rocket 4.0 13:46:03 10° WSW 13:48:42 13° W 13:51:07 10° WNW
Cosmos 1461 3.4 13:46:57 10° SW 13:50:57 40° WNW 13:55:02 10° N
Cosmos 1544 Rocket 4.3 13:46:51 10° N 13:51:07 53° E 13:55:28 10° SSE
SL-24 R/B - RUBIN 2 4.0 13:50:42 13° NW 13:55:43 85° NE 14:00:36 10° SE
Cosmos 1626 Rocket 4.0 13:51:22 10° S 13:55:55 67° ESE 14:00:21 10° NNE
Cosmos 2058 3.2 13:52:20 10° S 13:56:31 73° E 14:00:38 10° NNE
Cosmos 1048 Rocket 4.1 13:52:39 10° SSW 13:57:58 59° WNW 14:03:10 10° N
IRS-1D 3.7 13:53:31 10° N 13:58:51 67° WNW 14:04:17 10° SSW
Cosmos 2237 Rocket 2.2 13:56:48 10° SSW 14:02:34 75° WNW 14:08:16 10° NNE
Cosmos 397 4.5 14:02:25 11° NW 14:06:38 88° SW 14:10:43 10° SE
CZ-2D R/B 4.3 14:06:35 10° W 14:07:06 10° W 14:07:38 10° WSW
METEOR-M 4.4 14:04:08 10° N 14:09:23 53° W 14:14:43 10° SSW
Cosmos 2228 3.7 14:11:02 10° N 14:15:11 54° E 14:19:25 10° SSE
Cosmos 2263 Rocket 4.4 14:13:33 10° NNE 14:17:47 22° E 14:22:03 10° SE
CZ-2C R/B 4.4 14:15:41 10° NNW 14:20:33 28° W 14:25:32 10° SW
H-2A R/B 3.7 14:16:09 10° NE 14:21:08 40° ESE 14:26:16 10° S
USA 305 2.3 14:19:22 10° SW 14:21:11 39° SSE 14:22:54 10° E
PAYLOAD A 4.1 14:18:35 10° N 14:23:09 49° W 14:27:51 10° SSW
ADEOS II 4.1 14:22:03 10° W 14:23:12 11° W 14:24:22 10° WSW
USA 281 3.3 14:17:56 10° NNE 14:24:32 81° WNW 14:31:13 10° SSW
USA 307 1.4 14:24:02 10° WSW 14:26:15 72° SSE 14:28:24 10° ENE
Cosmos 1606 4.2 14:25:20 10° NNE 14:28:44 36° E 14:32:11 10° SSE
Cosmos 2084 Rocket 4.0 14:24:54 10° SW 14:29:29 47° NW 14:34:01 10° NNE
Cosmos 1125 Rocket 3.6 14:25:33 10° NNW 14:30:49 72° WSW 14:36:08 10° SSE
Meteor 2-1 Rocket 4.4 14:25:41 10° NNW 14:31:35 86° W 14:37:38 10° S
Cosmos 2227 Rocket 2.4 14:26:51 10° NNW 14:32:31 74° ENE 14:38:16 10° SSE
